JST989 YPPH-YSSY

Flight info

Callsign JST989
Flight time N/A
Altitude 35000
Route PH H18 MUBID J21 ISLAV/N0449F370 J21 BORLI H205 CULIN Y59 RIVET
Aircraft A320/M-SDE3FGHIRWY/LB1

Departure

Time 2026-05-06 09:48
Airport Perth International Airport (YPPH)

Arrival

Time N/A
Airport Sydney Kingsford Smith International Airport (YSSY)
Time Latitude Longitude Altitude Speed Heading
2026-05-06 09:10 -31.94420 115.97059 68 ft 0 kts 114°
2026-05-06 09:20 -31.94420 115.97058 61 ft 0 kts 114°
2026-05-06 09:36 -31.94415 115.97046 62 ft 4 kts 115°
2026-05-06 09:37 -31.94402 115.97018 60 ft 4 kts 130°
2026-05-06 09:37 -31.94382 115.96998 68 ft 4 kts 154°
2026-05-06 09:37 -31.94376 115.96994 68 ft 0 kts 159°
2026-05-06 09:41 -31.94383 115.96996 68 ft 2 kts 171°
2026-05-06 09:41 -31.94393 115.96985 64 ft 2 kts 236°
2026-05-06 09:41 -31.94387 115.96968 68 ft 3 kts 308°
2026-05-06 09:41 -31.94371 115.96944 64 ft 4 kts 305°
2026-05-06 09:42 -31.94362 115.96904 60 ft 6 kts 284°
2026-05-06 09:42 -31.94350 115.96849 59 ft 8 kts 284°
2026-05-06 09:42 -31.94328 115.96785 63 ft 9 kts 316°
2026-05-06 09:42 -31.94264 115.96789 66 ft 10 kts 14°
2026-05-06 09:43 -31.94188 115.96811 68 ft 12 kts 14°
2026-05-06 09:43 -31.94100 115.96836 64 ft 14 kts 14°
2026-05-06 09:43 -31.93999 115.96866 62 ft 16 kts 14°
2026-05-06 09:43 -31.93885 115.96899 63 ft 18 kts 14°
2026-05-06 09:44 -31.93758 115.96936 68 ft 20 kts 14°
2026-05-06 09:44 -31.93620 115.96977 63 ft 21 kts 14°
2026-05-06 09:44 -31.93484 115.97015 68 ft 21 kts 13°
2026-05-06 09:44 -31.93343 115.97055 65 ft 19 kts 14°
2026-05-06 09:45 -31.93209 115.97096 65 ft 20 kts 14°
2026-05-06 09:45 -31.93076 115.97135 68 ft 18 kts 13°
2026-05-06 09:45 -31.92992 115.97158 59 ft 6 kts 13°
2026-05-06 09:45 -31.92953 115.97151 66 ft 11 kts 324°
2026-05-06 09:46 -31.92929 115.97073 68 ft 0 kts 283°
2026-05-06 09:46 -31.92927 115.97065 66 ft 4 kts 283°
2026-05-06 09:46 -31.92908 115.96974 59 ft 15 kts 284°
2026-05-06 09:47 -31.92887 115.96878 63 ft 9 kts 284°
2026-05-06 09:47 -31.92916 115.96830 68 ft 10 kts 193°
2026-05-06 09:47 -31.92933 115.96825 61 ft 12 kts 193°
2026-05-06 09:47 -31.93266 115.96729 65 ft 83 kts 194°
2026-05-06 09:48 -31.94008 115.96513 67 ft 134 kts 194°
2026-05-06 09:48 -31.95045 115.96220 198 ft 163 kts 192°
2026-05-06 09:48 -31.96141 115.95893 813 ft 163 kts 192°
2026-05-06 09:48 -31.97244 115.95558 1440 ft 164 kts 192°
2026-05-06 09:49 -31.98351 115.95222 1893 ft 174 kts 191°
2026-05-06 09:49 -31.99628 115.94856 2120 ft 198 kts 191°
2026-05-06 09:49 -32.01031 115.94469 2340 ft 222 kts 187°
2026-05-06 09:49 -32.02602 115.94675 2674 ft 240 kts 150°
2026-05-06 09:50 -32.03770 115.96088 3280 ft 248 kts 116°
2026-05-06 09:50 -32.04351 115.98014 4152 ft 251 kts 104°
2026-05-06 09:50 -32.04716 116.00043 5018 ft 255 kts 101°
2026-05-06 09:50 -32.05045 116.02109 5861 ft 258 kts 101°
2026-05-06 09:51 -32.05403 116.04196 6675 ft 261 kts 102°
2026-05-06 09:51 -32.05809 116.06304 7457 ft 266 kts 103°
2026-05-06 09:51 -32.06390 116.08396 8205 ft 271 kts 114°
2026-05-06 09:51 -32.07188 116.10438 8976 ft 276 kts 114°
2026-05-06 09:52 -32.08004 116.12471 9700 ft 280 kts 115°
2026-05-06 09:52 -32.08852 116.14560 10343 ft 288 kts 115°
2026-05-06 09:52 -32.09751 116.16764 10722 ft 305 kts 116°
2026-05-06 09:52 -32.10706 116.19100 10889 ft 328 kts 116°
2026-05-06 09:53 -32.11724 116.21602 11018 ft 349 kts 116°
2026-05-06 09:53 -32.12794 116.24240 11389 ft 361 kts 116°
2026-05-06 09:53 -32.13881 116.26928 11981 ft 365 kts 116°
2026-05-06 09:53 -32.14980 116.29651 12597 ft 368 kts 116°
2026-05-06 09:54 -32.16084 116.32395 13196 ft 371 kts 116°
2026-05-06 09:54 -32.17196 116.35161 13778 ft 375 kts 116°
2026-05-06 09:54 -32.18304 116.37919 14344 ft 377 kts 116°
2026-05-06 09:54 -32.19429 116.40726 14910 ft 380 kts 116°
2026-05-06 09:55 -32.20567 116.43565 15452 ft 383 kts 116°
2026-05-06 09:55 -32.21794 116.46368 15974 ft 385 kts 122°
2026-05-06 09:55 -32.23220 116.49059 16481 ft 388 kts 123°
2026-05-06 09:55 -32.24660 116.51759 16997 ft 390 kts 123°
2026-05-06 09:56 -32.26113 116.54490 17498 ft 393 kts 123°
2026-05-06 09:56 -32.27571 116.57239 18004 ft 396 kts 123°
2026-05-06 09:56 -32.29039 116.60012 18516 ft 399 kts 123°
2026-05-06 09:56 -32.30491 116.62761 18991 ft 401 kts 123°
2026-05-06 09:57 -32.31975 116.65579 19470 ft 405 kts 123°
2026-05-06 09:57 -32.33469 116.68414 19947 ft 407 kts 123°
2026-05-06 09:57 -32.34979 116.71275 20400 ft 411 kts 123°
2026-05-06 09:57 -32.36496 116.74154 20847 ft 414 kts 123°
2026-05-06 09:58 -32.38021 116.77053 21276 ft 416 kts 123°
2026-05-06 09:58 -32.39554 116.79974 21685 ft 419 kts 123°
2026-05-06 09:58 -32.41100 116.82918 22091 ft 421 kts 123°
2026-05-06 09:58 -32.42652 116.85873 22471 ft 424 kts 123°
2026-05-06 09:59 -32.44191 116.88811 22838 ft 426 kts 122°
2026-05-06 09:59 -32.45757 116.91806 23194 ft 429 kts 122°
2026-05-06 09:59 -32.47334 116.94825 23532 ft 431 kts 122°
2026-05-06 09:59 -32.48915 116.97853 23879 ft 433 kts 122°
2026-05-06 10:00 -32.50503 117.00892 24218 ft 435 kts 122°
2026-05-06 10:00 -32.52101 117.03952 24558 ft 438 kts 122°
2026-05-06 10:00 -32.53636 117.07079 24893 ft 440 kts 117°
2026-05-06 10:00 -32.54789 117.10453 25220 ft 443 kts 109°
2026-05-06 10:01 -32.55758 117.13933 25557 ft 445 kts 109°
2026-05-06 10:01 -32.56731 117.17432 25869 ft 447 kts 109°
2026-05-06 10:01 -32.57706 117.20940 26261 ft 447 kts 109°
2026-05-06 10:01 -32.58663 117.24389 26725 ft 445 kts 109°
2026-05-06 10:02 -32.59631 117.27875 27186 ft 444 kts 109°
2026-05-06 10:02 -32.60600 117.31356 27629 ft 443 kts 109°
2026-05-06 10:02 -32.61565 117.34823 28055 ft 442 kts 109°
2026-05-06 10:02 -32.62524 117.38279 28498 ft 441 kts 109°
2026-05-06 10:03 -32.63480 117.41738 28948 ft 440 kts 109°
2026-05-06 10:03 -32.64428 117.45180 29369 ft 439 kts 109°
2026-05-06 10:03 -32.65378 117.48622 29786 ft 438 kts 109°
2026-05-06 10:03 -32.66326 117.52052 30208 ft 437 kts 109°
2026-05-06 10:04 -32.67270 117.55475 30611 ft 436 kts 109°
2026-05-06 10:04 -32.67894 117.57740 30882 ft 435 kts 109°
2026-05-06 10:04 -32.68835 117.61157 31279 ft 435 kts 109°
2026-05-06 10:04 -32.69774 117.64573 31684 ft 434 kts 109°
2026-05-06 10:05 -32.71011 117.69084 32188 ft 433 kts 109°
2026-05-06 10:05 -32.71640 117.71385 32448 ft 433 kts 109°
2026-05-06 10:05 -32.72569 117.74781 32845 ft 432 kts 109°
2026-05-06 10:05 -32.73496 117.78174 33208 ft 431 kts 109°
2026-05-06 10:06 -32.74421 117.81559 33564 ft 431 kts 109°
2026-05-06 10:06 -32.75346 117.84955 33933 ft 431 kts 110°
2026-05-06 10:06 -32.76265 117.88335 34294 ft 430 kts 110°
2026-05-06 10:06 -32.77173 117.91674 34620 ft 430 kts 109°
2026-05-06 10:07 -32.78094 117.95049 34913 ft 430 kts 110°
2026-05-06 10:07 -32.79014 117.98433 35205 ft 430 kts 109°
2026-05-06 10:07 -32.79935 118.01828 35381 ft 431 kts 109°
2026-05-06 10:07 -32.80861 118.05255 35415 ft 438 kts 109°
2026-05-06 10:08 -32.82744 118.12250 35413 ft 448 kts 109°
2026-05-06 10:08 -32.84647 118.19324 35413 ft 449 kts 109°
2026-05-06 10:09 -32.86532 118.26326 35412 ft 450 kts 109°
2026-05-06 10:09 -32.87472 118.29828 35590 ft 450 kts 109°
2026-05-06 10:09 -32.88420 118.33370 35589 ft 450 kts 109°
2026-05-06 10:10 -32.89369 118.36917 35382 ft 447 kts 108°
2026-05-06 10:10 -32.90311 118.40453 35418 ft 449 kts 109°
2026-05-06 10:10 -32.92203 118.47545 35430 ft 449 kts 109°
2026-05-06 10:11 -32.94099 118.54642 35431 ft 449 kts 109°
2026-05-06 10:11 -32.95840 118.61784 35431 ft 450 kts 102°
2026-05-06 10:12 -32.95964 118.69194 35431 ft 455 kts 83°
2026-05-06 10:12 -32.94418 118.76530 35430 ft 457 kts 76°
2026-05-06 10:13 -32.92719 118.83825 35432 ft 457 kts 76°
2026-05-06 10:13 -32.91022 118.91116 35433 ft 457 kts 76°
2026-05-06 10:14 -32.89318 118.98375 35435 ft 458 kts 76°
2026-05-06 10:14 -32.87597 119.05682 35440 ft 458 kts 76°
2026-05-06 10:15 -32.85879 119.12975 35441 ft 458 kts 76°
2026-05-06 10:15 -32.84148 119.20272 35441 ft 458 kts 76°
2026-05-06 10:16 -32.82421 119.27515 35440 ft 458 kts 76°
2026-05-06 10:16 -32.80688 119.34803 35439 ft 458 kts 76°
2026-05-06 10:17 -32.78943 119.42097 35439 ft 458 kts 76°
2026-05-06 10:17 -32.77198 119.49384 35438 ft 458 kts 76°
2026-05-06 10:18 -32.75459 119.56615 35438 ft 458 kts 76°
2026-05-06 10:18 -32.73708 119.63895 35436 ft 458 kts 76°
2026-05-06 10:19 -32.71960 119.71181 35439 ft 458 kts 75°
2026-05-06 10:19 -32.70195 119.78467 35442 ft 459 kts 75°
2026-05-06 10:20 -32.68416 119.85742 35440 ft 458 kts 75°
2026-05-06 10:20 -32.66656 119.92962 35439 ft 458 kts 75°
2026-05-06 10:21 -32.64882 120.00242 35439 ft 458 kts 75°
2026-05-06 10:21 -32.63108 120.07504 35437 ft 459 kts 75°
2026-05-06 10:22 -32.61322 120.14785 35441 ft 459 kts 75°
2026-05-06 10:22 -32.59523 120.22060 35441 ft 459 kts 75°
2026-05-06 10:23 -32.57729 120.29327 35441 ft 459 kts 75°
2026-05-06 10:23 -32.55944 120.36555 35439 ft 459 kts 75°
2026-05-06 10:24 -32.54140 120.43807 35440 ft 459 kts 75°
2026-05-06 10:24 -32.52331 120.51068 35442 ft 459 kts 75°
2026-05-06 10:25 -32.50518 120.58334 35441 ft 459 kts 75°
2026-05-06 10:25 -32.48707 120.65594 35440 ft 459 kts 75°
2026-05-06 10:26 -32.46891 120.72849 35440 ft 459 kts 75°
2026-05-06 10:26 -32.45069 120.80059 35439 ft 459 kts 75°
2026-05-06 10:27 -32.43242 120.87306 35439 ft 459 kts 75°
2026-05-06 10:27 -32.41407 120.94577 35440 ft 460 kts 75°
2026-05-06 10:28 -32.39566 121.01828 35440 ft 460 kts 75°
2026-05-06 10:28 -32.37726 121.09029 35439 ft 460 kts 75°
2026-05-06 10:29 -32.35873 121.16283 35440 ft 460 kts 75°
2026-05-06 10:29 -32.34025 121.23527 35438 ft 460 kts 75°
2026-05-06 10:30 -32.32173 121.30771 35438 ft 460 kts 75°
2026-05-06 10:30 -32.30320 121.38009 35437 ft 460 kts 75°
2026-05-06 10:31 -32.28462 121.45203 35438 ft 460 kts 74°
2026-05-06 10:31 -32.26590 121.52440 35440 ft 460 kts 75°
2026-05-06 10:32 -32.24716 121.59669 35444 ft 460 kts 74°
2026-05-06 10:32 -32.22836 121.66893 35446 ft 460 kts 74°
2026-05-06 10:33 -32.20976 121.74058 35442 ft 459 kts 74°
2026-05-06 10:33 -32.19611 121.81411 35437 ft 456 kts 88°
2026-05-06 10:34 -32.19741 121.88881 35429 ft 454 kts 94°
2026-05-06 10:34 -32.20005 121.96349 35428 ft 455 kts 94°
2026-05-06 10:35 -32.20227 122.03765 35428 ft 455 kts 94°
2026-05-06 10:35 -32.20446 122.11243 35430 ft 455 kts 94°
2026-05-06 10:36 -32.20674 122.18723 35432 ft 455 kts 94°
2026-05-06 10:36 -32.20903 122.26199 35432 ft 455 kts 94°
2026-05-06 10:37 -32.21120 122.33631 35432 ft 456 kts 94°
2026-05-06 10:37 -32.21336 122.41121 35433 ft 456 kts 94°
2026-05-06 10:38 -32.21548 122.48606 35433 ft 456 kts 94°
2026-05-06 10:38 -32.21748 122.56100 35434 ft 456 kts 94°
2026-05-06 10:39 -32.21948 122.63590 35435 ft 456 kts 94°
2026-05-06 10:39 -32.22153 122.71089 35443 ft 457 kts 94°
2026-05-06 10:40 -32.22346 122.78551 35457 ft 457 kts 94°
2026-05-06 10:40 -32.22534 122.86065 35461 ft 457 kts 93°
2026-05-06 10:41 -32.22716 122.93569 35466 ft 457 kts 94°
2026-05-06 10:41 -32.22895 123.01032 35469 ft 457 kts 94°
2026-05-06 10:42 -32.23065 123.08543 35472 ft 457 kts 93°
2026-05-06 10:42 -32.23234 123.16056 35472 ft 457 kts 93°
2026-05-06 10:43 -32.23403 123.23562 35470 ft 457 kts 93°
2026-05-06 10:44 -32.23650 123.34769 35467 ft 456 kts 93°
2026-05-06 10:44 -32.23806 123.42264 35465 ft 456 kts 93°
2026-05-06 10:45 -32.23956 123.49772 35465 ft 457 kts 93°
2026-05-06 10:45 -32.24104 123.57292 35467 ft 457 kts 93°
2026-05-06 10:46 -32.24241 123.64753 35465 ft 457 kts 93°
2026-05-06 10:46 -32.24380 123.72267 35466 ft 457 kts 93°
2026-05-06 10:47 -32.24516 123.79785 35467 ft 457 kts 93°
2026-05-06 10:47 -32.24642 123.87297 35467 ft 457 kts 93°
2026-05-06 10:48 -32.24757 123.94766 35467 ft 457 kts 93°
2026-05-06 10:48 -32.24877 124.02286 35471 ft 457 kts 93°
2026-05-06 10:49 -32.25005 124.09803 35471 ft 457 kts 93°
2026-05-06 10:49 -32.25124 124.17280 35470 ft 457 kts 93°
2026-05-06 10:50 -32.25225 124.24789 35467 ft 457 kts 92°
2026-05-06 10:50 -32.25318 124.32305 35468 ft 457 kts 92°
2026-05-06 10:51 -32.25414 124.39829 35468 ft 457 kts 92°
2026-05-06 10:51 -32.25505 124.47294 35468 ft 456 kts 93°
2026-05-06 10:52 -32.25604 124.54798 35463 ft 456 kts 93°
2026-05-06 10:52 -32.25697 124.62301 35459 ft 456 kts 93°
2026-05-06 10:53 -32.25763 124.68543 35457 ft 456 kts 92°
2026-05-06 10:53 -32.25840 124.77273 35458 ft 457 kts 92°
2026-05-06 10:54 -32.25894 124.83561 35461 ft 457 kts 92°
2026-05-06 10:54 -32.25959 124.91032 35460 ft 457 kts 92°
2026-05-06 10:55 -32.26026 124.98549 35460 ft 457 kts 92°
2026-05-06 10:55 -32.26091 125.06073 35461 ft 457 kts 92°
2026-05-06 10:56 -32.26140 125.13533 35462 ft 457 kts 92°
2026-05-06 10:56 -32.26196 125.21039 35461 ft 457 kts 92°
2026-05-06 10:57 -32.26237 125.28554 35458 ft 457 kts 92°
2026-05-06 10:57 -32.26270 125.36067 35458 ft 457 kts 92°
2026-05-06 10:58 -32.26314 125.43530 35456 ft 457 kts 92°
2026-05-06 10:58 -32.26499 125.50953 35458 ft 455 kts 99°
2026-05-06 10:59 -32.27360 125.58375 35459 ft 455 kts 100°
2026-05-06 10:59 -32.28206 125.65773 35456 ft 455 kts 99°
2026-05-06 11:00 -32.29023 125.73054 35455 ft 455 kts 99°
2026-05-06 11:00 -32.29864 125.80480 35457 ft 456 kts 99°
2026-05-06 11:01 -32.30700 125.87866 35462 ft 456 kts 99°
2026-05-06 11:01 -32.31526 125.95231 35464 ft 456 kts 99°
2026-05-06 11:02 -32.32354 126.02676 35465 ft 456 kts 99°
2026-05-06 11:02 -32.33184 126.10108 35468 ft 456 kts 99°
2026-05-06 11:03 -32.33993 126.17556 35466 ft 456 kts 99°
2026-05-06 11:03 -32.34790 126.24949 35464 ft 456 kts 99°
2026-05-06 11:04 -32.35601 126.32397 35464 ft 456 kts 99°
2026-05-06 11:04 -32.36413 126.39851 35465 ft 456 kts 99°
2026-05-06 11:05 -32.37228 126.47296 35465 ft 456 kts 99°
2026-05-06 11:05 -32.38022 126.54698 35467 ft 456 kts 99°
2026-05-06 11:06 -32.38806 126.62151 35466 ft 456 kts 99°
2026-05-06 11:06 -32.39599 126.69607 35462 ft 456 kts 99°
2026-05-06 11:07 -32.40382 126.77057 35461 ft 456 kts 99°
2026-05-06 11:07 -32.41153 126.84467 35457 ft 456 kts 99°
2026-05-06 11:08 -32.41933 126.91925 35457 ft 456 kts 99°
2026-05-06 11:08 -32.42711 126.99379 35452 ft 456 kts 99°
2026-05-06 11:09 -32.43479 127.06852 35453 ft 456 kts 99°
2026-05-06 11:09 -32.44242 127.14316 35453 ft 456 kts 99°
2026-05-06 11:10 -32.45000 127.21784 35452 ft 457 kts 99°
2026-05-06 11:10 -32.45745 127.29217 35452 ft 457 kts 99°
2026-05-06 11:11 -32.46493 127.36697 35454 ft 458 kts 99°
2026-05-06 11:11 -32.47246 127.44196 35455 ft 458 kts 99°
2026-05-06 11:12 -32.47991 127.51686 35458 ft 458 kts 98°
2026-05-06 11:12 -32.48722 127.59189 35458 ft 458 kts 98°
2026-05-06 11:13 -32.49455 127.66651 35460 ft 458 kts 98°
2026-05-06 11:13 -32.50193 127.74155 35462 ft 459 kts 98°
2026-05-06 11:14 -32.50919 127.81679 35461 ft 459 kts 98°
2026-05-06 11:14 -32.51640 127.89187 35463 ft 459 kts 98°
2026-05-06 11:15 -32.52361 127.96704 35466 ft 459 kts 98°
2026-05-06 11:15 -32.53077 128.04226 35462 ft 459 kts 98°
2026-05-06 11:16 -32.53765 128.11704 35458 ft 459 kts 98°
2026-05-06 11:16 -32.54468 128.19242 35459 ft 460 kts 98°
2026-05-06 11:17 -32.55169 128.26794 35458 ft 460 kts 98°
2026-05-06 11:17 -32.55865 128.34344 35459 ft 461 kts 98°
2026-05-06 11:18 -32.56550 128.41852 35461 ft 461 kts 98°
2026-05-06 11:18 -32.57227 128.49413 35461 ft 461 kts 98°
2026-05-06 11:19 -32.57908 128.56994 35462 ft 462 kts 98°
2026-05-06 11:19 -32.58583 128.64471 35459 ft 462 kts 98°
2026-05-06 11:20 -32.59254 128.72005 35459 ft 462 kts 98°
2026-05-06 11:20 -32.59921 128.79600 35457 ft 462 kts 98°
2026-05-06 11:21 -32.60584 128.87194 35457 ft 463 kts 98°
2026-05-06 11:21 -32.61248 128.94782 35454 ft 463 kts 98°
2026-05-06 11:22 -32.61908 129.02385 35454 ft 463 kts 98°
2026-05-06 11:22 -32.62561 129.09986 35455 ft 463 kts 98°
2026-05-06 11:23 -32.63202 129.17603 35456 ft 464 kts 98°
2026-05-06 11:23 -32.63844 129.25183 35453 ft 464 kts 98°
2026-05-06 11:24 -32.64490 129.32808 35446 ft 464 kts 98°
2026-05-06 11:24 -32.65128 129.40442 35445 ft 464 kts 98°
2026-05-06 11:25 -32.65756 129.48029 35441 ft 465 kts 97°
2026-05-06 11:25 -32.66380 129.55666 35442 ft 465 kts 97°
2026-05-06 11:26 -32.66996 129.63313 35441 ft 465 kts 97°
2026-05-06 11:26 -32.67613 129.70973 35444 ft 466 kts 97°
2026-05-06 11:27 -32.68233 129.78630 35446 ft 466 kts 97°
2026-05-06 11:27 -32.68850 129.86306 35447 ft 466 kts 97°
2026-05-06 11:28 -32.69453 129.93927 35445 ft 466 kts 97°
2026-05-06 11:28 -32.70052 130.01610 35442 ft 466 kts 97°
2026-05-06 11:29 -32.70644 130.09288 35435 ft 467 kts 97°
2026-05-06 11:29 -32.71235 130.16970 35430 ft 467 kts 97°
2026-05-06 11:30 -32.71824 130.24620 35432 ft 468 kts 97°
2026-05-06 11:30 -32.72405 130.32334 35436 ft 469 kts 97°
2026-05-06 11:31 -32.72985 130.40056 35434 ft 469 kts 97°
2026-05-06 11:31 -32.73559 130.47781 35432 ft 469 kts 97°
2026-05-06 11:32 -32.74145 130.55512 35431 ft 469 kts 97°
2026-05-06 11:32 -32.74722 130.63196 35431 ft 470 kts 97°
2026-05-06 11:33 -32.75275 130.70925 35430 ft 470 kts 97°
2026-05-06 11:33 -32.75827 130.78665 35429 ft 470 kts 97°
2026-05-06 11:34 -32.76370 130.86364 35428 ft 470 kts 97°
2026-05-06 11:34 -32.76920 130.94126 35424 ft 470 kts 97°
2026-05-06 11:35 -32.77474 131.01867 35423 ft 470 kts 97°
2026-05-06 11:35 -32.78025 131.09620 35419 ft 471 kts 97°
2026-05-06 11:36 -32.78555 131.17269 35419 ft 471 kts 96°
2026-05-06 11:36 -32.79071 131.25027 35415 ft 471 kts 96°
2026-05-06 11:37 -32.79591 131.32811 35409 ft 471 kts 96°
2026-05-06 11:37 -32.80115 131.40584 35406 ft 472 kts 96°
2026-05-06 11:38 -32.80634 131.48307 35402 ft 472 kts 96°
2026-05-06 11:38 -32.81146 131.56096 35406 ft 472 kts 96°
2026-05-06 11:39 -32.81650 131.63895 35409 ft 473 kts 96°
2026-05-06 11:39 -32.82154 131.71697 35409 ft 473 kts 96°
2026-05-06 11:40 -32.82656 131.79452 35412 ft 473 kts 96°
2026-05-06 11:40 -32.83161 131.87268 35413 ft 473 kts 96°
2026-05-06 11:41 -32.83647 131.95084 35412 ft 473 kts 96°
2026-05-06 11:41 -32.84122 132.02852 35407 ft 474 kts 96°
2026-05-06 11:42 -32.84598 132.10672 35398 ft 474 kts 96°
2026-05-06 11:42 -32.85084 132.18514 35393 ft 475 kts 96°
2026-05-06 11:43 -32.85554 132.26348 35395 ft 475 kts 96°
2026-05-06 11:43 -32.86015 132.34155 35398 ft 475 kts 96°
2026-05-06 11:44 -32.86706 132.45926 35395 ft 475 kts 96°
2026-05-06 11:44 -32.87082 132.52458 35394 ft 476 kts 96°
2026-05-06 11:45 -32.87544 132.60311 35392 ft 476 kts 96°
2026-05-06 11:45 -32.88005 132.68190 35392 ft 476 kts 96°
2026-05-06 11:46 -32.88444 132.76024 35392 ft 477 kts 95°
2026-05-06 11:46 -32.88877 132.83911 35392 ft 477 kts 95°
2026-05-06 11:47 -32.89313 132.91802 35392 ft 477 kts 96°
2026-05-06 11:47 -32.89750 132.99698 35393 ft 478 kts 96°
2026-05-06 11:48 -32.90181 133.07551 35394 ft 478 kts 95°